TimeCST,TemperatureF,Dew PointF,Humidity,Sea Level PressureIn,VisibilityMPH,Wind Direction,Wind SpeedMPH,Gust SpeedMPH,PrecipitationIn,Events,Conditions,WindDirDegrees,DateUTC
12:53 AM,59.0,44.1,58,30.13,10.0,South,6.9,-,N/A,,Clear,170,2012-11-11 06:53:00
1:53 AM,59.0,45.0,60,30.14,10.0,South,10.4,16.1,N/A,,Clear,180,2012-11-11 07:53:00
2:53 AM,57.9,46.0,65,30.14,10.0,South,12.7,18.4,N/A,,Clear,180,2012-11-11 08:53:00
3:53 AM,57.9,46.9,67,30.14,10.0,South,9.2,-,N/A,,Overcast,180,2012-11-11 09:53:00
4:53 AM,57.9,48.0,70,30.15,10.0,South,10.4,16.1,N/A,,Overcast,170,2012-11-11 10:53:00
5:53 AM,57.9,48.9,72,30.15,10.0,South,12.7,19.6,N/A,,Overcast,180,2012-11-11 11:53:00
6:53 AM,57.9,48.0,70,30.16,10.0,South,11.5,17.3,N/A,,Overcast,170,2012-11-11 12:53:00
7:53 AM,57.9,48.0,70,30.16,10.0,South,11.5,21.9,N/A,,Mostly Cloudy,170,2012-11-11 13:53:00
8:53 AM,62.1,48.9,62,30.17,10.0,SSE,12.7,18.4,N/A,,Partly Cloudy,160,2012-11-11 14:53:00
9:53 AM,66.0,51.1,59,30.17,10.0,South,15.0,20.7,N/A,,Clear,180,2012-11-11 15:53:00
10:53 AM,66.9,51.1,57,30.14,10.0,South,11.5,29.9,N/A,,Scattered Clouds,180,2012-11-11 16:53:00
11:53 AM,69.1,52.0,54,30.11,10.0,South,15.0,24.2,N/A,,Overcast,180,2012-11-11 17:53:00
12:53 PM,71.1,52.0,51,30.08,10.0,South,18.4,29.9,N/A,,Mostly Cloudy,190,2012-11-11 18:53:00
1:53 PM,71.1,52.0,51,30.03,10.0,South,13.8,27.6,N/A,,Clear,180,2012-11-11 19:53:00
2:53 PM,73.0,51.1,46,30.00,10.0,SSE,19.6,34.5,N/A,,Clear,160,2012-11-11 20:53:00
3:53 PM,72.0,52.0,49,30.01,10.0,South,19.6,29.9,N/A,,Clear,170,2012-11-11 21:53:00
4:53 PM,70.0,52.0,53,30.01,10.0,South,13.8,25.3,N/A,,Partly Cloudy,170,2012-11-11 22:53:00
5:53 PM,70.0,53.1,55,30.01,10.0,SSE,9.2,21.9,N/A,,Overcast,160,2012-11-11 23:53:00
6:34 PM,69.8,53.6,56,30.03,10.0,South,13.8,27.6,N/A,Thunderstorm,Overcast,170,2012-11-12 00:34:00
6:47 PM,69.8,53.6,56,30.05,10.0,South,17.3,28.8,N/A,Thunderstorm,Overcast,180,2012-11-12 00:47:00
6:53 PM,66.9,55.0,66,30.04,9.0,South,12.7,28.8,0.01,Rain-Thunderstorm,Rain,180,2012-11-12 00:53:00
7:13 PM,66.2,53.6,64,30.03,10.0,SSE,15.0,20.7,0.00,,Overcast,160,2012-11-12 01:13:00
7:53 PM,66.9,54.0,63,30.02,10.0,South,15.0,26.5,0.00,Rain,Light Rain,170,2012-11-12 01:53:00
8:53 PM,63.0,57.0,81,30.05,4.0,South,11.5,21.9,0.05,Rain,Rain,170,2012-11-12 02:53:00
9:03 PM,62.6,57.2,82,30.05,3.0,South,10.4,-,0.03,Rain-Thunderstorm,Rain,170,2012-11-12 03:03:00
9:18 PM,60.8,57.2,88,30.07,4.0,South,10.4,19.6,0.08,Rain,Rain,180,2012-11-12 03:18:00
9:53 PM,61.0,57.9,90,30.06,7.0,SSE,8.1,-,0.15,Rain,Rain,160,2012-11-12 03:53:00
10:53 PM,61.0,59.0,93,30.04,10.0,SSE,11.5,19.6,0.06,Rain,Light Rain,160,2012-11-12 04:53:00
11:36 PM,62.6,59.0,88,30.03,9.0,SSE,11.5,23.0,0.02,Rain,Light Rain,160,2012-11-12 05:36:00
11:53 PM,62.1,57.9,86,30.01,10.0,SSE,13.8,24.2,0.03,Rain,Light Rain,160,2012-11-12 05:53:00